• Processing (Info)

  • MPEC 2000-Y13 : S/2000 S 11

    The following Minor Planet Electronic Circular may be linked-to from your own Web pages, but must not otherwise be redistributed electronically.

    A form allowing access to any MPEC is at the bottom of this page.


    Read MPEC 2000-Y12 Read MPEC 2000-Y14


    M.P.E.C. 2000-Y13                                Issued 2000 Dec. 19, 19:32 UT
    
         The Minor Planet Electronic Circulars contain information on unusual
             minor planets and routine data on comets.  They are published
       on behalf of Commission 20 of the International Astronomical Union by the
              Minor Planet Center, Smithsonian Astrophysical Observatory,
                              Cambridge, MA 02138, U.S.A.
    
                 Prepared using the Tamkin Foundation Computer Network
    
                                  MPC@CFA.HARVARD.EDU
              URL http://cfa-www.harvard.edu/iau/mpc.html  ISSN 1523-6714
    
                                      S/2000 S 11
    
    Observations:
        SK00S110  C2000 11 09.45771 03 42 58.34 +16 46 03.3                      696
        SK00S110  C2000 11 09.46927 03 42 58.14 +16 46 02.5          21.3 R      696
        SK00S110  C2000 11 09.48107 03 42 57.89 +16 46 01.5                      696
        SK00S110  C2000 11 23.33182 03 38 30.26 +16 30 42.1          20.6 R      696
        SK00S110  C2000 11 23.34745 03 38 29.95 +16 30 41.9                      696
        SK00S110  C2000 11 24.09346 03 38 15.61 +16 29 54.9          20.5 R      809
        SK00S110  C2000 11 24.13571 03 38 14.78 +16 29 52.2          20.3 R      809
        SK00S110  C2000 11 24.18362 03 38 13.83 +16 29 49.1          20.4 R      809
        SK00S110  C2000 11 25.07396 03 37 56.77 +16 28 52.5          20.6 R      809
        SK00S110  C2000 11 25.10549 03 37 56.15 +16 28 50.6          20.4 R      809
        SK00S110  C2000 11 25.14129 03 37 55.45 +16 28 48.4          20.7 R      809
        SK00S110  C2000 12 16.11291 03 31 46.46 +16 09 44.5          20.6 R      695
        SK00S110  C2000 12 16.16070 03 31 45.71 +16 09 42.5          20.3 R      695
        SK00S110  C2000 12 16.20000 03 31 45.10 +16 09 40.7          20.4 R      695
        SK00S110  C2000 12 17.39258 03 31 26.95 +16 08 51.5                      695
    
    Observer details:
    695 Kitt Peak.  Observers M. Holman, B. Gladman, T. Grav.  4-m reflector + CCD.
    696 Whipple Observatory, Mt. Hopkins.  Observer M. Holman.  1.2-m reflector
        + CCD.
    809 European Southern Observatory, La Silla.  Observers B. Gladman, J.-M.
        Petit.  2.2-m reflector + CCD.
    
    Orbital elements:
    S/2000 S 11
    Epoch 2001 Apr. 1.0 TT = JDT 2452000.5                  Marsden
    M 212.25043              (2000.0)            P               Q
    n   0.40821216     Peri.   73.00111     -0.83588121     +0.05494222
    a   0.1185613      Node   107.27236     -0.17513032     -0.96967185
    e   0.3870307      Incl.   34.88605     +0.52022301     -0.23815512
    P   2.41           H   11.4           P/d   881.89
    Residuals in seconds of arc
    001109 696  0.1-  0.1+    001124 809  0.1-  0.1+    001125 809  0.1+  0.1+
    001109 696  0.2+  0.1+    001124 809  0.1-  0.0     001216 695  0.4+  0.3-
    001109 696  0.1-  0.1-    001124 809  0.2-  0.0     001216 695  0.3+  0.3-
    001123 696  0.0   0.4-    001125 809  0.1+  0.0     001216 695  0.4+  0.4-
    001123 696  0.0   0.4+    001125 809  0.0   0.0     001217 695  1.0-  1.0+
    
    Ephemeris:
        S/2000 S 11                                                  q = 0.0686
    Date    TT    R. A. (2000) Decl.     Delta     r_S   dR.A. ("/m)  dDecl.m1"/')
    2000 12 12    03 32.85   +16 12.8    8.274    0.164  2594-/3.00-  2781-/ 46.3-
    2000 12 22    03 30.35   +16 05.8    8.363    0.164  2466-/2.85-  2769-/ 46.1-
    2001 01 01    03 28.41   +16 01.2    8.477    0.164  2332-/2.70-  2741-/ 45.7-
    2001 01 11    03 27.11   +15 59.4    8.612    0.164  2197-/2.54-  2702-/ 45.0-
    2001 01 21    03 26.54   +16 00.5    8.763    0.164  2066-/2.39-  2653-/ 44.2-
    2001 01 31    03 26.71   +16 04.5    8.924    0.164  1940-/2.24-  2597-/ 43.3-
    2001 02 10    03 27.63   +16 11.3    9.092    0.164  1824-/2.11-  2537-/ 42.3-
    2001 02 20    03 29.28   +16 20.6    9.261    0.164  1717-/1.99-  2474-/ 41.2-
    2001 03 02    03 31.62   +16 32.3    9.426    0.163  1620-/1.88-  2410-/ 40.2-
    2001 03 12    03 34.58   +16 45.8    9.584    0.162  1534-/1.78-  2347-/ 39.1-
    2001 03 22    03 38.11   +17 00.8    9.729    0.162  1457-/1.69-  2284-/ 38.1-
    2001 04 01    03 42.13   +17 17.0    9.860    0.161  1389-/1.62-  2223-/ 37.1-
    2001 04 11    03 46.57   +17 33.9    9.972    0.160  1328-/1.55-  2164-/ 36.1-
    
    Brian G. Marsden             (C) Copyright 2000 MPC           M.P.E.C. 2000-Y13
    

    Read MPEC 2000-Y12 Read MPEC 2000-Y14


    MPEC number:

    Enter an MPEC number in one of the following forms:

    • 1997-B01 (the full form)
    • J97B01 (the packed version of the full form)
    • B01 (the abbreviated form)